Theta_e
307 307 312 313 313 313 314 314 314 315 316 315 315 315 315 315 316 315 315 316 316 317 317 317 318 318 319 319 320 321 322 323 323 325 325 326 331 331 332 335 336 336 339
306 306 312 310 307 311 313 314 314 314 313 314 314 314 314 315 314 314 314 313 316 314 317 317 316 316 317 319 319 320 320 321 321 320 320 323 324 328 329 331 334 336 337
305 304 306 305 301 305 311 312 312 313 314 313 314 314 313 313 312 312 312 313 313 314 315 314 315 315 316 317 317 316 319 321 319 318 320 319 323 325 327 327 331 332 334
303 303 303 300 301 302 308 311 311 312 312 311 313 312 313 310 309 310 312 311 311 313 312 312 312 313 314 314 315 316 317 317 318 317 316 318 318 320 324 325 328 330 331
303 302 300 301 300 298 304 309 310 311 311 311 310 309 308 303 301 304 309 309 308 310 310 310 310 311 312 313 313 312 314 314 315 314 312 312 316 316 318 322 323 328 329
302 301 301 299 298 298 301 307 310 310 308 308 305 306 301 299 298 298 299 300 305 308 307 307 308 309 309 310 310 311 311 312 311 303 305 305 307 309 313 316 316 320 327
302 301 300 299 298 298 299 299 302 303 301 298 298 298 298 297 297 298 298 298 300 304 304 306 305 306 307 306 306 308 310 305 301 300 300 302 304 305 306 311 313 316 318
302 301 300 300 299 299 299 300 300 299 298 297 297 297 297 297 298 300 299 299 299 301 303 305 304 305 305 305 304 302 301 300 299 299 299 303 304 305 308 309 310 312 316
301 301 300 300 300 301 301 300 299 298 297 297 297 297 298 300 301 301 302 299 302 303 303 304 303 304 304 304 301 304 303 300 299 301 302 302 303 306 307 305 308 310 313
302 301 300 300 300 300 300 300 299 298 297 297 298 298 299 299 300 299 300 301 303 303 303 303 304 304 304 304 303 304 303 301 301 301 301 301 304 305 307 308 308 310 312
302 301 300 299 299 300 300 300 299 298 300 299 298 297 296 297 298 299 300 301 302 302 303 303 303 303 303 301 301 302 302 300 300 300 300 301 304 306 307 308 308 309 310
302 301 300 299 300 300 301 299 299 299 298 299 298 296 296 297 298 299 298 300 300 301 300 301 301 301 299 299 299 300 299 299 299 299 299 302 304 305 306 307 307 308 309
301 300 299 298 300 300 300 300 300 299 299 299 297 297 297 297 297 297 297 298 298 299 299 298 298 298 298 298 299 298 299 299 299 298 298 300 302 304 305 306 306 307 308
301 300 299 299 300 300 300 299 299 300 299 297 298 298 297 297 297 296 298 298 298 298 298 297 297 298 298 297 298 299 299 299 299 299 299 300 302 303 304 305 306 306 307
300 300 299 300 300 299 299 299 298 299 296 298 298 297 297 296 295 297 298 298 298 296 296 296 296 296 297 297 297 298 299 300 300 300 300 300 301 302 303 305 305 306 306
301 300 300 300 300 299 299 298 297 297 297 298 298 298 297 295 296 297 298 298 298 296 297 297 296 296 296 297 297 298 299 299 299 300 300 300 301 301 302 303 304 304 305
300 299 299 299 300 299 299 298 297 297 298 298 298 297 296 296 295 297 298 298 298 296 297 297 297 297 297 297 297 297 297 297 298 297 299 299 300 300 300 301 302 303 304
300 300 299 300 300 299 298 297 297 297 298 298 298 297 296 296 296 296 297 297 297 296 296 297 297 297 297 298 297 298 297 298 299 300 300 300 299 299 298 298 300 301 303
300 299 299 300 300 298 298 298 298 298 298 298 297 297 296 296 296 296 297 297 297 296 295 295 296 297 297 297 297 298 298 298 299 300 300 300 299 299 299 298 298 299 301
300 298 299 300 300 298 298 298 298 299 298 298 297 297 296 296 296 296 296 296 296 296 296 296 294 296 296 296 297 297 297 297 298 299 299 297 298 298 298 298 299 299 300
300 298 299 300 299 297 297 298 297 298 298 297 297 297 296 296 297 296 296 296 296 296 295 295 293 294 295 296 296 296 296 297 298 299 297 298 298 298 298 298 299 300 300
300 299 299 300 299 297 296 296 296 297 298 298 298 297 296 296 296 296 296 296 296 296 295 295 295 293 294 294 294 295 296 297 297 296 297 297 297 297 298 298 299 301 301
301 299 299 300 299 297 297 297 297 298 299 299 297 297 297 296 296 296 296 296 296 296 296 296 295 295 294 294 294 294 294 295 295 297 295 296 296 297 297 299 300 302 302
301 300 299 299 299 297 296 297 297 298 298 298 297 297 297 297 296 296 296 296 296 296 296 296 296 295 295 294 294 293 293 293 295 295 295 296 296 297 297 300 301 301 302
302 300 299 299 299 297 296 297 296 298 297 297 298 297 297 297 297 296 296 296 296 296 296 296 295 295 295 295 294 294 293 293 294 296 295 295 296 297 297 298 300 300 302
302 300 299 299 299 298 296 296 297 297 297 297 297 297 297 297 297 297 296 295 296 296 296 296 296 296 295 295 295 294 294 293 294 295 294 295 296 297 297 297 299 300 301
Wind_Speed
7 9 8 11 12 15 15 16 16 15 13 12 13 11 12 12 14 13 14 16 15 15 14 13 15 14 14 11 9 11 14 15 13 12 13 16 16 16 14 12 9 8 3
5 6 10 13 15 15 15 14 13 11 12 11 11 11 12 11 13 15 15 14 15 14 14 15 14 14 15 15 14 11 8 12 14 15 13 9 9 11 17 14 13 12 10
2 4 12 15 17 16 13 13 13 13 9 9 10 12 11 14 13 14 13 14 14 15 15 15 14 15 16 15 14 13 10 10 13 14 14 8 8 9 8 14 15 16 14
2 5 13 16 16 14 11 11 10 10 10 9 11 13 14 13 14 13 14 13 12 14 15 16 15 15 14 15 15 13 13 9 11 16 14 12 16 15 9 13 18 16 17
6 11 14 14 13 12 11 10 11 10 11 12 11 12 12 13 14 14 13 13 13 15 16 16 16 15 15 14 16 16 14 14 13 18 15 15 16 19 14 14 15 21 18
7 10 14 12 11 10 10 11 10 11 10 11 11 12 13 14 14 14 14 15 15 15 16 17 17 16 17 17 15 15 16 18 17 16 15 15 15 17 22 18 21 20 23
9 7 13 11 10 10 10 10 10 11 12 12 12 13 14 14 14 15 16 16 17 17 17 17 18 18 17 18 18 17 16 19 20 17 14 12 15 17 17 18 18 19 19
4 6 8 11 13 9 9 10 10 11 12 12 13 13 14 15 15 16 18 18 20 20 19 19 19 18 19 19 18 18 18 19 18 18 13 12 15 14 14 15 17 17 16
5 6 7 9 9 10 14 12 12 11 11 11 11 12 15 16 15 15 15 20 20 19 19 19 18 19 19 20 19 17 18 16 14 13 13 13 11 13 16 17 17 18 18
8 5 7 7 9 9 10 14 13 14 12 12 13 15 15 13 14 18 16 18 18 18 19 19 20 20 20 18 16 17 19 14 12 14 12 13 13 15 17 18 18 18 19
4 6 6 6 8 9 9 13 14 14 12 13 16 17 16 15 16 19 17 17 17 17 17 16 18 18 16 15 16 16 16 12 15 16 14 13 14 17 18 19 20 20 20
3 3 8 7 8 9 7 11 12 13 14 14 17 18 18 16 15 15 18 17 18 17 18 17 16 15 16 17 17 17 17 17 17 16 15 15 16 18 19 21 21 22 22
3 6 6 6 7 8 9 10 11 11 14 13 15 17 18 18 17 17 18 20 20 17 19 20 17 15 19 15 15 16 16 17 20 19 19 18 18 20 20 21 23 23 23
4 8 7 7 6 7 8 9 8 9 10 12 14 16 19 19 17 18 18 18 19 19 18 20 18 14 16 17 12 13 13 17 20 21 21 19 19 21 22 22 22 23 25
2 5 7 8 8 7 6 10 8 8 10 10 12 16 17 18 17 17 16 19 23 22 18 18 18 18 19 20 17 11 15 19 19 21 22 22 21 22 22 22 23 24 25
3 5 2 3 7 9 9 10 9 10 9 10 12 15 17 17 17 15 14 17 22 22 23 21 23 24 25 22 20 17 12 16 17 18 16 19 21 23 20 22 25 25 26
4 4 6 4 8 9 9 10 9 10 10 10 11 12 16 16 17 14 14 17 23 25 20 20 20 21 24 25 23 23 24 21 26 19 14 17 17 23 29 29 26 27 27
3 5 5 4 5 7 8 8 9 9 10 10 11 13 16 16 16 14 12 14 21 28 18 18 20 20 23 23 27 26 22 22 19 21 16 17 20 29 29 32 29 32 30
5 4 4 3 4 7 7 8 8 9 10 9 11 13 15 15 16 15 13 12 20 26 24 18 16 17 21 23 24 27 25 20 22 22 15 18 26 27 34 34 37 31 27
5 4 2 3 5 5 4 4 2 5 7 8 10 12 14 15 16 15 15 13 14 18 23 27 20 14 17 23 25 26 27 18 18 13 22 20 19 27 34 38 32 29 26
5 4 4 5 6 4 2 4 1 4 4 8 10 12 14 14 15 15 16 16 15 18 17 24 27 21 21 22 25 30 28 21 12 15 17 21 21 29 31 37 30 24 26
5 7 7 6 5 5 4 4 3 4 7 9 12 12 13 14 15 16 17 17 16 18 19 25 27 26 22 22 24 25 21 27 19 31 19 25 23 28 32 35 25 21 24
11 11 8 8 6 5 4 4 3 3 5 6 10 11 12 13 14 15 16 15 14 13 14 19 23 24 23 25 19 19 18 15 35 26 27 27 30 27 33 26 18 20 21
12 14 12 9 7 7 6 4 3 2 4 7 9 11 12 13 14 14 16 16 16 16 14 15 15 20 22 25 24 21 19 23 26 26 26 28 29 29 30 24 18 23 24
16 16 12 10 9 9 7 6 4 4 5 6 7 10 10 12 13 14 16 17 16 15 17 19 18 18 19 21 22 24 25 25 23 26 26 34 30 30 28 24 18 22 23
19 17 14 12 10 10 8 7 6 5 6 6 7 8 10 11 12 14 17 16 16 17 19 19 18 20 20 20 21 21 24 25 26 28 26 27 29 32 27 25 23 19 22
Wind_Direction
57 358 349 347 352 357 2 2 6 9 3 6 2 9 10 11 7 7 4 9 7 1 14 6 2 2 6 0 349 0 356 347 324 325 295 269 268 284 286 278 258 239 281
58 29 339 325 349 1 8 8 4 6 5 6 2 13 18 4 5 5 4 3 7 358 7 5 2 356 1 359 356 349 354 340 339 299 301 320 282 297 279 276 271 253 238
56 356 283 323 338 346 10 14 20 18 12 8 12 10 7 8 3 13 8 5 0 1 3 357 360 355 353 350 354 357 340 339 316 305 319 261 273 255 317 292 263 263 256
1 304 316 333 341 348 15 14 25 16 14 10 18 9 5 359 12 5 8 5 3 358 356 354 353 353 352 343 344 350 342 326 312 301 277 282 263 252 262 297 263 255 260
340 322 340 347 347 352 13 16 23 20 26 18 9 10 2 2 3 1 2 2 358 356 352 348 349 348 343 341 340 334 335 328 317 286 281 279 279 278 263 302 261 245 250
328 338 349 359 2 3 5 21 22 22 10 11 6 7 1 359 359 358 356 354 357 354 348 346 347 341 338 338 335 333 327 316 311 310 297 287 280 283 275 284 277 260 241
330 357 348 11 12 10 3 0 2 1 360 1 1 360 357 356 355 353 350 347 347 346 346 346 341 339 337 331 327 327 321 314 318 315 307 295 282 284 290 296 294 285 273
9 20 2 355 7 17 14 7 1 357 358 358 359 0 357 352 355 354 348 345 344 342 343 342 339 340 336 334 329 324 320 320 318 318 320 315 300 301 299 293 292 290 291
25 10 3 2 8 6 355 7 1 1 3 4 360 358 357 5 355 353 353 346 348 346 344 341 342 339 336 333 333 334 329 327 332 326 324 305 316 300 300 294 301 298 289
0 15 1 0 353 4 2 354 0 3 4 3 1 358 3 351 352 347 350 352 349 346 345 345 343 339 337 340 336 333 330 340 327 307 304 300 309 303 306 305 303 301 295
355 349 344 354 359 15 15 346 0 4 359 358 353 353 356 354 345 350 347 350 348 349 346 347 342 341 342 331 333 331 330 320 311 314 315 317 309 307 306 305 303 300 295
316 354 333 359 13 11 8 4 356 359 352 359 344 351 356 357 352 346 345 349 348 351 347 346 347 343 336 340 338 328 324 325 325 320 314 315 308 307 306 305 303 299 297
343 328 337 4 15 8 22 1 358 2 349 346 348 353 357 354 353 351 353 350 353 350 335 335 336 348 348 338 323 332 340 330 326 323 314 313 310 307 306 304 301 298 294
309 328 339 4 19 12 29 346 355 346 346 354 355 350 357 356 358 354 0 351 332 338 332 337 346 347 329 336 348 333 332 336 322 321 323 315 312 310 308 306 302 297 293
271 325 337 1 356 9 15 351 1 351 356 5 355 358 353 355 359 2 5 341 337 345 348 346 352 349 346 345 346 357 347 329 323 321 318 317 311 311 308 306 303 298 292
314 303 327 331 343 9 8 357 10 359 13 5 2 1 346 358 3 9 359 346 330 340 351 355 354 353 344 346 346 341 321 305 293 290 294 305 306 311 309 306 304 299 292
266 329 316 351 4 358 357 0 5 356 16 11 2 355 351 3 3 7 4 344 338 337 349 349 347 346 342 344 341 350 342 339 334 317 315 319 314 306 304 305 306 301 293
133 261 310 347 354 344 350 5 0 6 11 3 359 352 3 2 1 7 3 350 329 338 350 347 342 344 341 338 338 343 344 345 353 352 337 319 311 313 312 306 307 304 291
222 220 252 327 313 337 1 15 354 360 357 358 352 359 5 3 3 9 6 356 335 346 353 346 336 336 332 329 335 331 333 341 346 339 333 315 310 311 311 310 311 303 291
249 235 240 283 304 330 0 345 2 319 330 335 350 359 2 3 5 9 3 2 348 343 342 341 346 334 332 335 330 328 327 331 332 321 318 326 325 313 313 314 315 305 295
252 229 229 242 273 303 287 275 275 286 309 324 353 356 357 2 5 7 2 5 359 352 351 336 344 352 347 345 338 330 334 339 326 318 317 337 323 319 324 328 318 309 295
214 256 246 250 275 299 304 316 330 338 351 359 341 346 352 359 2 3 4 1 1 350 351 340 348 352 347 349 344 341 335 330 319 331 323 320 334 332 334 332 322 319 306
220 232 238 245 267 274 284 294 336 355 350 303 318 338 349 353 353 356 358 352 346 349 346 334 341 342 342 350 355 346 336 325 326 326 335 333 338 343 337 334 340 327 331
229 224 237 242 258 268 274 274 280 306 308 313 333 339 344 343 346 348 347 348 352 354 342 334 336 337 337 340 336 342 340 328 327 324 325 334 339 345 344 336 351 358 338
229 235 232 236 250 258 259 265 271 266 282 304 316 325 337 333 338 342 334 340 347 335 341 340 353 344 336 333 335 333 335 334 334 321 324 328 336 352 351 343 341 331 342
224 230 229 232 244 252 254 259 265 282 293 303 307 324 325 331 329 327 326 334 336 349 335 335 346 340 340 336 339 332 334 337 340 340 325 325 335 342 349 353 346 328 356